Weather History for Fort Stockton, TX

Change the Weather History Date:

Sunday, September 8, 2013

  Actual Average Record
Temperature  
Mean Temperature 80 °F -  
Max Temperature 90 °F 88 °F 98 °F (2001)
Min Temperature 69 °F 65 °F 53 °F (2004)
Cooling Degree Days 14    
Growing Degree Days 30 (Base 50)    
Moisture  
Dew Point 59 °F    
Average Humidity 53    
Maximum Humidity 81    
Minimum Humidity 31    
Precipitation  
Precipitation 0.00 in - - ()
Sea Level Pressure  
Sea Level Pressure 29.85 in    
Wind  
Wind Speed 10 mph (SE)    
Max Wind Speed 16 mph    
Max Gust Speed 24 mph    
Visibility 10 miles    
Events      
Averages and records for this station are not official NWS values.
T = Trace of Precipitation, MM = Missing Value Source: NWS Daily Summary

Daily Weather History Graph

Daily Weather History Graph

Search for Another Location

Airport:

Trip Planner

Search our weather history database for the weather conditions in past years. The results will help you decide how hot, cold, wet, or windy it might be!

Date:

Astronomy

Sep. 08, 2013 Rise Set
Actual Time 7:32 AM CDT 8:05 PM CDT
Civil Twilight 7:07 AM CDT 8:30 PM CDT
Nautical Twilight 6:39 AM CDT 8:58 PM CDT
Astronomical Twilight 6:10 AM CDT 9:27 PM CDT
Moon 10:35 AM CDT (9/8) 10:01 PM CDT (9/8)
Length of Visible Light 13h 22m
Length of Day
12h 33m
Waxing Crescent, 11% of the Moon is Illuminated
Sep 8
Waxing Crescent
Sep 12
First Quarter
Sep 19
Full
Sep 26
Last Quarter
Oct 4
New

Hourly Weather History & Observations

Time (CDT) Temp. Heat Index Dew Point Humidity Pressure Visibility Wind Dir Wind Speed Gust Speed Precip Events Conditions
12:53 AM 73.9 °F - 53.1 °F 48% 29.90 in 10.0 mi SSE 6.9 mph - N/A   Clear
1:53 AM 73.0 °F - 54.0 °F 51% 29.90 in 10.0 mi South 8.1 mph - N/A   Clear
2:53 AM 72.0 °F - 55.0 °F 55% 29.88 in 10.0 mi South 8.1 mph - N/A   Clear
3:53 AM 72.0 °F - 57.0 °F 59% 29.87 in 10.0 mi SSE 8.1 mph - N/A   Clear
4:53 AM 70.0 °F - 57.9 °F 65% 29.87 in 10.0 mi SSE 8.1 mph - N/A   Clear
5:53 AM 70.0 °F - 61.0 °F 73% 29.87 in 10.0 mi SSE 9.2 mph - N/A   Clear
6:53 AM 69.1 °F - 61.0 °F 75% 29.88 in 10.0 mi SSE 6.9 mph - N/A   Clear
7:53 AM 70.0 °F - 64.0 °F 81% 29.90 in 10.0 mi SE 8.1 mph - N/A   Clear
8:54 AM 72.0 °F - 64.9 °F 78% 29.90 in 10.0 mi SE 15.0 mph - N/A   Unknown
9:53 AM 75.9 °F - 64.9 °F 69% 29.91 in 10.0 mi SE 12.7 mph - N/A   Clear
10:53 AM 80.1 °F 81.9 °F 64.9 °F 60% 29.90 in 10.0 mi SE 11.5 mph - N/A   Clear
11:53 AM 82.9 °F 84.4 °F 64.0 °F 53% 29.90 in 10.0 mi SSE 11.5 mph 17.3 mph N/A   Clear
12:53 PM 86.0 °F 86.3 °F 62.1 °F 44% 29.88 in 10.0 mi ESE 13.8 mph 19.6 mph N/A   Scattered Clouds
1:53 PM 89.1 °F 87.7 °F 57.0 °F 34% 29.86 in 10.0 mi ESE 11.5 mph 19.6 mph N/A   Partly Cloudy
2:53 PM 88.0 °F 87.1 °F 59.0 °F 37% 29.84 in 10.0 mi SE 16.1 mph - N/A   Clear
3:53 PM 89.1 °F 87.7 °F 57.0 °F 34% 29.80 in 10.0 mi SE 15.0 mph 23.0 mph N/A   Clear
4:53 PM 90.0 °F 88.1 °F 55.9 °F 31% 29.78 in 10.0 mi East 12.7 mph 21.9 mph N/A   Partly Cloudy
5:53 PM 88.0 °F 85.9 °F 54.0 °F 31% 29.77 in 10.0 mi SE 13.8 mph 19.6 mph N/A   Clear
6:53 PM 87.1 °F 85.7 °F 55.9 °F 35% 29.77 in 10.0 mi SE 16.1 mph - N/A   Partly Cloudy
7:53 PM 84.0 °F 83.3 °F 57.0 °F 40% 29.78 in 10.0 mi SE 12.7 mph 21.9 mph N/A   Clear
8:53 PM 80.1 °F 80.4 °F 57.0 °F 45% 29.83 in 10.0 mi ESE 13.8 mph 24.2 mph N/A   Clear
9:53 PM 78.1 °F - 62.1 °F 58% 29.84 in 10.0 mi SE 15.0 mph 20.7 mph N/A   Clear
10:53 PM 77.0 °F - 61.0 °F 58% 29.85 in 10.0 mi SE 15.0 mph 20.7 mph N/A   Clear
11:53 PM 73.0 °F - 62.1 °F 68% 29.84 in 10.0 mi SSE 15.0 mph - N/A   Clear